TimeEDT,TemperatureF,Dew PointF,Humidity,Sea Level PressureIn,VisibilityMPH,Wind Direction,Wind SpeedMPH,Gust SpeedMPH,PrecipitationIn,Events,Conditions,WindDirDegrees,DateUTC
12:53 AM,45.0,24.1,44,29.76,10.0,NW,12.7,-,N/A,,Clear,310,2012-10-30 04:53:00
1:53 AM,45.0,26.1,48,29.74,10.0,NW,13.8,23.0,N/A,,Clear,310,2012-10-30 05:53:00
2:53 AM,44.1,27.0,51,29.73,10.0,WNW,12.7,-,N/A,,Clear,290,2012-10-30 06:53:00
3:53 AM,43.0,28.0,56,29.72,10.0,WNW,11.5,17.3,N/A,,Clear,300,2012-10-30 07:53:00
4:53 AM,42.1,28.0,58,29.71,10.0,WNW,12.7,20.7,N/A,,Clear,290,2012-10-30 08:53:00
5:53 AM,42.1,28.0,58,29.71,10.0,WNW,13.8,24.2,N/A,,Clear,290,2012-10-30 09:53:00
6:53 AM,42.1,27.0,55,29.71,10.0,WNW,13.8,25.3,N/A,,Clear,300,2012-10-30 10:53:00
7:53 AM,41.0,26.1,55,29.73,10.0,West,13.8,23.0,N/A,,Clear,280,2012-10-30 11:53:00
8:53 AM,42.1,25.0,51,29.74,10.0,WNW,15.0,23.0,N/A,,Clear,290,2012-10-30 12:53:00
9:53 AM,43.0,24.1,47,29.74,10.0,WNW,13.8,24.2,N/A,,Clear,290,2012-10-30 13:53:00
10:53 AM,46.0,24.1,42,29.74,10.0,NW,17.3,28.8,N/A,,Clear,310,2012-10-30 14:53:00
11:53 AM,48.0,23.0,37,29.75,10.0,WNW,20.7,31.1,N/A,,Clear,290,2012-10-30 15:53:00
12:53 PM,51.1,19.9,29,29.74,10.0,WNW,20.7,32.2,N/A,,Clear,290,2012-10-30 16:53:00
1:53 PM,54.0,18.0,24,29.71,10.0,WNW,21.9,32.2,N/A,,Clear,290,2012-10-30 17:53:00
2:53 PM,53.1,17.1,24,29.71,10.0,WNW,16.1,32.2,N/A,,Clear,290,2012-10-30 18:53:00
3:53 PM,52.0,19.0,27,29.72,10.0,WNW,16.1,32.2,N/A,,Clear,300,2012-10-30 19:53:00
4:53 PM,53.1,18.0,25,29.72,10.0,West,20.7,29.9,N/A,,Clear,280,2012-10-30 20:53:00
5:53 PM,52.0,18.0,26,29.73,10.0,West,15.0,25.3,N/A,,Clear,280,2012-10-30 21:53:00
6:35 PM,51.8,19.4,28,29.73,10.0,West,12.7,24.2,N/A,,Clear,280,2012-10-30 22:35:00
6:53 PM,51.1,19.0,28,29.76,10.0,West,16.1,26.5,N/A,,Clear,280,2012-10-30 22:53:00
7:53 PM,50.0,17.1,27,29.79,10.0,WNW,16.1,25.3,N/A,,Clear,290,2012-10-30 23:53:00
8:53 PM,48.9,19.9,32,29.81,10.0,West,10.4,-,N/A,,Clear,280,2012-10-31 00:53:00
9:53 PM,46.0,23.0,40,29.83,10.0,West,6.9,-,N/A,,Clear,260,2012-10-31 01:53:00
10:53 PM,46.0,24.1,42,29.84,10.0,West,8.1,-,N/A,,Clear,280,2012-10-31 02:53:00
11:53 PM,46.0,24.1,42,29.83,10.0,West,10.4,-,N/A,,Clear,280,2012-10-31 03:53:00